TimeCDT,TemperatureF,Dew PointF,Humidity,Sea Level PressureIn,VisibilityMPH,Wind Direction,Wind SpeedMPH,Gust SpeedMPH,PrecipitationIn,Events,Conditions,WindDirDegrees,DateUTC
12:53 AM,64.9,60.1,84,29.85,10.0,South,6.9,-,0.00,,Mostly Cloudy,170,2013-05-17 05:53:00
1:39 AM,62.6,60.8,94,29.87,1.8,East,9.2,-,0.17,Rain,Heavy Rain,90,2013-05-17 06:39:00
1:46 AM,62.6,59.0,88,29.87,3.0,ESE,8.1,-,0.17,Rain,Light Rain,110,2013-05-17 06:46:00
1:53 AM,64.0,59.0,84,29.83,10.0,East,6.9,-,0.17,,Overcast,80,2013-05-17 06:53:00
2:00 AM,64.4,59.0,83,29.87,10.0,East,4.6,-,N/A,Thunderstorm,Overcast,90,2013-05-17 07:00:00
2:53 AM,63.0,59.0,87,29.84,10.0,ENE,8.1,-,0.01,Thunderstorm,Overcast,70,2013-05-17 07:53:00
3:01 AM,62.6,59.0,88,29.88,10.0,East,8.1,-,0.00,Rain,Light Rain,90,2013-05-17 08:01:00
3:50 AM,62.6,59.0,88,29.91,5.0,North,18.4,-,0.04,Rain-Thunderstorm,Rain,350,2013-05-17 08:50:00
3:53 AM,62.1,57.9,86,29.87,6.0,North,18.4,-,0.04,Rain-Thunderstorm,Light Thunderstorms and Rain,360,2013-05-17 08:53:00
4:53 AM,61.0,59.0,93,29.90,10.0,NE,16.1,-,0.08,Rain-Thunderstorm,Light Rain,40,2013-05-17 09:53:00
5:21 AM,60.8,59.0,94,29.96,5.0,NE,15.0,-,0.05,Rain-Thunderstorm,Thunderstorms and Rain,50,2013-05-17 10:21:00
5:39 AM,60.8,57.2,88,29.96,8.0,NE,13.8,-,0.09,Rain-Thunderstorm,Light Rain,50,2013-05-17 10:39:00
5:48 AM,60.8,57.2,88,29.94,10.0,NE,19.6,-,0.10,Rain,Light Rain,50,2013-05-17 10:48:00
5:53 AM,61.0,57.9,90,29.91,10.0,ENE,17.3,-,0.10,Rain,Light Rain,70,2013-05-17 10:53:00
6:53 AM,59.0,55.9,90,29.91,10.0,East,16.1,-,0.00,Rain,Light Rain,90,2013-05-17 11:53:00
7:42 AM,57.2,55.4,94,29.96,10.0,East,17.3,24.2,0.00,,Overcast,90,2013-05-17 12:42:00
7:53 AM,57.9,54.0,87,29.93,10.0,East,18.4,25.3,0.00,,Overcast,100,2013-05-17 12:53:00
8:53 AM,55.9,52.0,87,29.95,6.0,East,10.4,-,0.03,Rain,Light Rain,100,2013-05-17 13:53:00
9:53 AM,59.0,53.1,81,29.94,10.0,East,13.8,-,0.01,,Mostly Cloudy,100,2013-05-17 14:53:00
10:24 AM,60.8,53.6,77,29.97,10.0,ESE,12.7,-,N/A,,Mostly Cloudy,110,2013-05-17 15:24:00
10:53 AM,62.1,55.0,78,29.94,10.0,ESE,12.7,-,N/A,,Overcast,120,2013-05-17 15:53:00
11:53 AM,63.0,55.9,78,29.95,10.0,ESE,8.1,-,N/A,,Overcast,120,2013-05-17 16:53:00
12:48 PM,68.0,60.8,78,29.97,9.0,ESE,9.2,-,N/A,,Overcast,120,2013-05-17 17:48:00
12:53 PM,68.0,61.0,78,29.94,9.0,SSE,8.1,-,N/A,,Overcast,150,2013-05-17 17:53:00
1:04 PM,68.0,60.8,78,29.97,8.0,ESE,6.9,-,N/A,,Overcast,110,2013-05-17 18:04:00
1:33 PM,69.8,60.8,73,29.95,8.0,ESE,10.4,-,0.00,Rain,Light Rain,110,2013-05-17 18:33:00
1:53 PM,72.0,63.0,73,29.92,6.0,East,9.2,-,0.01,Rain,Light Rain,80,2013-05-17 18:53:00
2:15 PM,71.6,64.4,78,29.94,9.0,NE,12.7,-,0.00,Thunderstorm,Mostly Cloudy,40,2013-05-17 19:15:00
2:53 PM,64.9,60.1,84,29.94,7.0,SSW,5.8,-,0.00,Rain-Thunderstorm,Light Rain,200,2013-05-17 19:53:00
3:27 PM,66.2,62.6,88,29.94,10.0,East,9.2,-,0.04,Rain,Light Rain,80,2013-05-17 20:27:00
3:53 PM,66.9,63.0,87,29.91,10.0,East,11.5,-,0.04,,Partly Cloudy,80,2013-05-17 20:53:00
4:53 PM,69.1,63.0,81,29.90,10.0,East,10.4,-,N/A,,Partly Cloudy,80,2013-05-17 21:53:00
5:53 PM,70.0,63.0,78,29.90,10.0,East,9.2,-,N/A,,Clear,90,2013-05-17 22:53:00
6:53 PM,69.1,64.0,84,29.90,7.0,East,9.2,-,N/A,,Clear,80,2013-05-17 23:53:00
7:53 PM,68.0,62.1,81,29.91,8.0,East,6.9,-,N/A,,Clear,80,2013-05-18 00:53:00
8:53 PM,66.0,62.1,87,29.89,9.0,ESE,10.4,-,N/A,,Clear,110,2013-05-18 01:53:00
9:53 PM,64.9,61.0,87,29.92,9.0,East,6.9,-,N/A,,Partly Cloudy,90,2013-05-18 02:53:00
10:53 PM,64.9,61.0,87,29.95,8.0,East,8.1,-,N/A,,Partly Cloudy,90,2013-05-18 03:53:00
11:53 PM,66.0,57.9,75,29.95,10.0,SE,10.4,-,N/A,,Clear,130,2013-05-18 04:53:00